Location: Marcé
(47.5801°N, 0.3280°W)
Time: 09:06:16
(UTC+01:00)

Tiros 1 despin weight - Pass Details

Date: 14 December 2021
Orbit: 592 x 641 km, 48.2° (Epoch: 25 January)

Event Time Altitude Azimuth Distance (km) Brightness Sun altitude
Rises 10:35:41 0° 233° (SW) 2,873 ? 12.5°
Reaches altitude 10° 10:38:03 10° 227° (SW) 1,961 ? 12.7°
Maximum altitude 10:42:23 48° 154° (SSE) 796 ? 13.1°
Drops below altitude 10° 10:46:39 10° 80° (E) 1,941 ? 13.4°
Sets 10:48:59 0° 75° (ENE) 2,839 ? 13.6°
